Time,TemperatureF,DewpointF,PressureIn,WindDirection,WindDirectionDegrees,WindSpeedMPH,WindSpeedGustMPH,Humidity,HourlyPrecipIn,Conditions,Clouds,dailyrainin,SoftwareType,DateUTC
2013-02-04 00:03:00,55.0,49.0,30.13,NNW,348,0.0,0.0,79,0.00,,,0.00,,2013-02-04 05:03:00,
2013-02-04 00:11:00,55.0,49.0,30.13,NNW,348,0.0,0.0,79,0.00,,,0.00,,2013-02-04 05:11:00,
2013-02-04 00:22:00,54.0,48.0,30.13,NNW,348,0.0,0.0,81,0.00,,,0.00,,2013-02-04 05:22:00,
2013-02-04 00:33:00,54.0,48.0,30.12,NNW,348,0.0,0.0,81,0.00,,,0.00,,2013-02-04 05:33:00,
2013-02-04 00:42:00,54.0,48.0,30.12,NNW,348,0.0,0.0,81,0.00,,,0.00,,2013-02-04 05:42:00,
2013-02-04 00:52:00,55.0,49.0,30.11,NNW,348,0.0,0.0,80,0.00,,,0.00,,2013-02-04 05:52:00,
2013-02-04 01:02:00,54.0,49.0,30.11,NNW,348,0.0,0.0,82,0.00,,,0.00,,2013-02-04 06:02:00,
2013-02-04 01:11:00,54.0,49.0,30.11,NNW,348,0.0,0.0,82,0.00,,,0.00,,2013-02-04 06:11:00,
2013-02-04 01:21:00,54.0,48.0,30.11,NNW,348,0.0,0.0,81,0.00,,,0.00,,2013-02-04 06:21:00,
2013-02-04 01:32:00,54.0,49.0,30.11,North,349,0.0,0.0,83,0.00,,,0.00,,2013-02-04 06:32:00,
2013-02-04 01:42:00,54.0,49.0,30.11,North,349,0.0,0.0,83,0.00,,,0.00,,2013-02-04 06:42:00,
2013-02-04 01:52:00,54.0,50.0,30.11,NNE,32,0.0,1.0,87,0.00,,,0.00,,2013-02-04 06:52:00,
2013-02-04 02:02:00,54.0,49.0,30.11,North,5,0.0,1.0,83,0.00,,,0.00,,2013-02-04 07:02:00,
2013-02-04 02:11:00,55.0,49.0,30.11,NW,312,0.0,0.0,79,0.00,,,0.00,,2013-02-04 07:11:00,
2013-02-04 02:21:00,55.0,49.0,30.11,NW,312,0.0,0.0,79,0.00,,,0.00,,2013-02-04 07:21:00,
2013-02-04 02:32:00,56.0,49.0,30.11,NNW,345,0.0,0.0,78,0.00,,,0.00,,2013-02-04 07:32:00,
2013-02-04 02:42:00,56.0,49.0,30.11,NNW,345,0.0,0.0,78,0.00,,,0.00,,2013-02-04 07:42:00,
2013-02-04 02:52:00,55.0,49.0,30.10,NNW,347,0.0,0.0,79,0.00,,,0.00,,2013-02-04 07:52:00,
2013-02-04 03:01:00,55.0,49.0,30.10,NNW,342,0.0,0.0,80,0.00,,,0.00,,2013-02-04 08:01:00,
2013-02-04 03:11:00,55.0,49.0,30.10,NNW,342,0.0,0.0,80,0.00,,,0.00,,2013-02-04 08:11:00,
2013-02-04 03:21:00,55.0,49.0,30.11,NW,311,0.0,1.0,80,0.00,,,0.00,,2013-02-04 08:21:00,
2013-02-04 03:32:00,55.0,49.0,30.11,NW,312,0.0,0.0,80,0.00,,,0.00,,2013-02-04 08:32:00,
2013-02-04 03:42:00,55.0,49.0,30.11,NW,312,0.0,0.0,80,0.00,,,0.00,,2013-02-04 08:42:00,
2013-02-04 03:52:00,54.0,49.0,30.11,NW,321,0.0,0.0,82,0.00,,,0.00,,2013-02-04 08:52:00,
2013-02-04 04:02:00,53.0,48.0,30.11,North,1,0.0,1.0,84,0.00,,,0.00,,2013-02-04 09:02:00,
2013-02-04 04:11:00,53.0,48.0,30.11,NNE,16,0.0,1.0,84,0.00,,,0.00,,2013-02-04 09:11:00,
2013-02-04 04:21:00,53.0,48.0,30.11,NNE,16,0.0,1.0,84,0.00,,,0.00,,2013-02-04 09:21:00,
2013-02-04 04:32:00,53.0,48.0,30.11,NNW,345,0.0,1.0,84,0.00,,,0.00,,2013-02-04 09:32:00,
2013-02-04 04:42:00,53.0,48.0,30.11,NNW,345,0.0,1.0,84,0.00,,,0.00,,2013-02-04 09:42:00,
2013-02-04 04:52:00,53.0,49.0,30.11,NNE,29,0.0,1.0,86,0.00,,,0.00,,2013-02-04 09:52:00,
2013-02-04 05:01:00,53.0,49.0,30.11,NNE,13,0.0,2.0,87,0.00,,,0.00,,2013-02-04 10:01:00,
2013-02-04 05:11:00,53.0,49.0,30.11,NNE,13,0.0,2.0,87,0.00,,,0.00,,2013-02-04 10:11:00,
2013-02-04 05:21:00,53.0,49.0,30.11,North,352,0.0,1.0,87,0.00,,,0.00,,2013-02-04 10:21:00,
2013-02-04 05:32:00,53.0,50.0,30.12,North,351,0.0,0.0,88,0.00,,,0.00,,2013-02-04 10:32:00,
2013-02-04 05:42:00,53.0,50.0,30.12,North,351,0.0,0.0,88,0.00,,,0.00,,2013-02-04 10:42:00,
2013-02-04 05:52:00,52.0,49.0,30.12,NW,311,0.0,1.0,88,0.00,,,0.00,,2013-02-04 10:52:00,
2013-02-04 06:02:00,52.0,49.0,30.13,NNE,16,0.0,1.0,88,0.00,,,0.00,,2013-02-04 11:02:00,
2013-02-04 06:11:00,52.0,49.0,30.13,NNE,16,0.0,1.0,88,0.00,,,0.00,,2013-02-04 11:11:00,
2013-02-04 06:22:00,52.0,48.0,30.13,NNE,22,0.0,1.0,87,0.00,,,0.00,,2013-02-04 11:22:00,
2013-02-04 06:32:00,52.0,49.0,30.13,NE,52,0.0,1.0,88,0.00,,,0.00,,2013-02-04 11:32:00,
2013-02-04 06:42:00,52.0,49.0,30.13,NE,52,0.0,1.0,88,0.00,,,0.00,,2013-02-04 11:42:00,
2013-02-04 06:52:00,51.0,47.0,30.14,North,4,0.0,1.0,87,0.00,,,0.00,,2013-02-04 11:52:00,
2013-02-04 07:02:00,51.0,47.0,30.14,North,360,0.0,0.0,87,0.00,,,0.00,,2013-02-04 12:02:00,
2013-02-04 07:12:00,51.0,47.0,30.14,North,360,0.0,0.0,87,0.00,,,0.00,,2013-02-04 12:12:00,
2013-02-04 07:22:00,50.0,45.0,30.14,North,10,0.0,1.0,84,0.00,,,0.00,,2013-02-04 12:22:00,
2013-02-04 07:32:00,50.0,44.0,30.14,NNW,333,0.0,1.0,80,0.00,,,0.00,,2013-02-04 12:32:00,
2013-02-04 07:42:00,50.0,44.0,30.14,NNW,333,0.0,1.0,80,0.00,,,0.00,,2013-02-04 12:42:00,
2013-02-04 07:53:00,51.0,44.0,30.14,North,11,0.0,2.0,77,0.00,,,0.00,,2013-02-04 12:53:00,
2013-02-04 08:02:00,53.0,44.0,30.14,North,356,0.0,1.0,71,0.00,,,0.00,,2013-02-04 13:02:00,
2013-02-04 08:12:00,55.0,45.0,30.15,NNE,13,0.0,1.0,69,0.00,,,0.00,,2013-02-04 13:12:00,
2013-02-04 08:21:00,55.0,45.0,30.15,NNE,13,0.0,1.0,69,0.00,,,0.00,,2013-02-04 13:21:00,
2013-02-04 08:33:00,56.0,44.0,30.15,NNW,344,0.0,1.0,65,0.00,,,0.00,,2013-02-04 13:33:00,
2013-02-04 08:42:00,56.0,44.0,30.15,NNW,344,0.0,1.0,65,0.00,,,0.00,,2013-02-04 13:42:00,
2013-02-04 08:52:00,57.0,44.0,30.15,North,351,0.0,3.0,61,0.00,,,0.00,,2013-02-04 13:52:00,
2013-02-04 09:03:00,58.0,44.0,30.15,North,5,0.0,4.0,59,0.00,,,0.00,,2013-02-04 14:03:00,
2013-02-04 09:12:00,58.0,44.0,30.15,North,5,0.0,4.0,59,0.00,,,0.00,,2013-02-04 14:12:00,
2013-02-04 09:22:00,59.0,43.0,30.16,NW,322,0.0,3.0,55,0.00,,,0.00,,2013-02-04 14:22:00,
2013-02-04 09:32:00,61.0,45.0,30.16,ENE,68,0.0,1.0,55,0.00,,,0.00,,2013-02-04 14:32:00,
2013-02-04 09:42:00,61.0,45.0,30.16,ENE,68,0.0,1.0,55,0.00,,,0.00,,2013-02-04 14:42:00,
2013-02-04 09:52:00,62.0,43.0,30.17,ENE,68,0.0,2.0,49,0.00,,,0.00,,2013-02-04 14:52:00,
2013-02-04 10:03:00,63.0,43.0,30.17,NNW,340,0.0,1.0,48,0.00,,,0.00,,2013-02-04 15:03:00,
2013-02-04 10:12:00,63.0,43.0,30.17,NNW,340,0.0,1.0,48,0.00,,,0.00,,2013-02-04 15:12:00,
2013-02-04 10:23:00,64.0,44.0,30.16,NNW,348,0.0,2.0,48,0.00,,,0.00,,2013-02-04 15:23:00,
2013-02-04 10:33:00,65.0,43.0,30.16,NE,40,0.0,1.0,44,0.00,,,0.00,,2013-02-04 15:33:00,
2013-02-04 10:43:00,65.0,43.0,30.16,NE,40,0.0,1.0,44,0.00,,,0.00,,2013-02-04 15:43:00,
2013-02-04 10:53:00,67.0,44.0,30.15,East,99,1.0,1.0,44,0.00,,,0.00,,2013-02-04 15:53:00,
2013-02-04 11:03:00,68.0,45.0,30.15,West,267,0.0,2.0,43,0.00,,,0.00,,2013-02-04 16:03:00,
2013-02-04 11:11:00,68.0,45.0,30.15,West,267,0.0,2.0,43,0.00,,,0.00,,2013-02-04 16:11:00,
2013-02-04 11:22:00,69.0,46.0,30.15,ENE,75,1.0,3.0,44,0.00,,,0.00,,2013-02-04 16:22:00,
2013-02-04 11:33:00,70.0,46.0,30.14,West,274,1.0,3.0,42,0.00,,,0.00,,2013-02-04 16:33:00,
2013-02-04 11:42:00,70.0,46.0,30.14,West,274,1.0,3.0,42,0.00,,,0.00,,2013-02-04 16:42:00,
2013-02-04 11:52:00,70.0,45.0,30.14,West,272,1.0,4.0,41,0.00,,,0.00,,2013-02-04 16:52:00,
2013-02-04 12:02:00,70.0,45.0,30.13,WSW,239,2.0,4.0,41,0.00,,,0.00,,2013-02-04 17:02:00,
2013-02-04 12:11:00,71.0,47.0,30.12,WNW,287,4.0,7.0,42,0.00,,,0.00,,2013-02-04 17:11:00,
2013-02-04 12:21:00,71.0,47.0,30.12,WNW,287,4.0,7.0,42,0.00,,,0.00,,2013-02-04 17:21:00,
2013-02-04 12:32:00,71.0,48.0,30.11,WSW,242,1.0,3.0,44,0.00,,,0.00,,2013-02-04 17:32:00,
2013-02-04 12:42:00,73.0,50.0,30.10,ESE,106,0.0,3.0,44,0.00,,,0.00,,2013-02-04 17:42:00,
2013-02-04 12:52:00,73.0,50.0,30.10,ESE,106,0.0,3.0,44,0.00,,,0.00,,2013-02-04 17:52:00,
2013-02-04 13:03:00,74.0,50.0,30.09,SE,138,0.0,7.0,43,0.00,,,0.00,,2013-02-04 18:03:00,
2013-02-04 13:11:00,74.0,50.0,30.09,SE,138,0.0,7.0,43,0.00,,,0.00,,2013-02-04 18:11:00,
2013-02-04 13:22:00,75.0,52.0,30.08,ENE,68,1.0,2.0,44,0.00,,,0.00,,2013-02-04 18:22:00,
2013-02-04 13:32:00,75.0,53.0,30.08,ESE,102,1.0,6.0,46,0.00,,,0.00,,2013-02-04 18:32:00,
2013-02-04 13:42:00,75.0,53.0,30.08,ESE,102,1.0,6.0,46,0.00,,,0.00,,2013-02-04 18:42:00,
2013-02-04 13:52:00,74.0,54.0,30.07,SSE,148,1.0,6.0,49,0.00,,,0.00,,2013-02-04 18:52:00,
2013-02-04 14:02:00,73.0,53.0,30.07,ENE,69,2.0,6.0,50,0.00,,,0.00,,2013-02-04 19:02:00,
2013-02-04 14:11:00,73.0,53.0,30.07,ENE,69,2.0,6.0,50,0.00,,,0.00,,2013-02-04 19:11:00,
2013-02-04 14:22:00,74.0,55.0,30.06,SW,225,2.0,5.0,51,0.00,,,0.00,,2013-02-04 19:22:00,
2013-02-04 14:32:00,74.0,54.0,30.06,SSW,195,3.0,6.0,50,0.00,,,0.00,,2013-02-04 19:32:00,
2013-02-04 14:42:00,74.0,54.0,30.06,SSW,195,3.0,6.0,50,0.00,,,0.00,,2013-02-04 19:42:00,
2013-02-04 14:52:00,75.0,56.0,30.05,ESE,114,1.0,6.0,51,0.00,,,0.00,,2013-02-04 19:52:00,
2013-02-04 15:02:00,75.0,55.0,30.05,NE,46,1.0,3.0,50,0.00,,,0.00,,2013-02-04 20:02:00,
2013-02-04 15:12:00,75.0,55.0,30.05,NE,46,1.0,3.0,50,0.00,,,0.00,,2013-02-04 20:12:00,
2013-02-04 15:22:00,75.0,57.0,30.05,SW,224,1.0,7.0,53,0.00,,,0.00,,2013-02-04 20:22:00,
2013-02-04 15:32:00,74.0,55.0,30.05,SE,132,1.0,6.0,51,0.00,,,0.00,,2013-02-04 20:32:00,
2013-02-04 15:42:00,74.0,55.0,30.05,SE,132,1.0,6.0,51,0.00,,,0.00,,2013-02-04 20:42:00,
2013-02-04 15:52:00,74.0,56.0,30.05,ESE,115,1.0,5.0,54,0.00,,,0.00,,2013-02-04 20:52:00,
2013-02-04 16:02:00,74.0,54.0,30.05,SSW,212,1.0,7.0,50,0.00,,,0.00,,2013-02-04 21:02:00,
2013-02-04 16:11:00,74.0,54.0,30.05,SSW,212,1.0,7.0,50,0.00,,,0.00,,2013-02-04 21:11:00,
2013-02-04 16:22:00,74.0,57.0,30.05,West,272,0.0,5.0,55,0.00,,,0.00,,2013-02-04 21:22:00,
2013-02-04 16:32:00,75.0,57.0,30.05,SSE,156,0.0,2.0,53,0.00,,,0.00,,2013-02-04 21:32:00,
2013-02-04 16:42:00,75.0,57.0,30.05,SSE,156,0.0,2.0,53,0.00,,,0.00,,2013-02-04 21:42:00,
2013-02-04 16:52:00,76.0,54.0,30.05,SSE,162,1.0,3.0,47,0.00,,,0.00,,2013-02-04 21:52:00,
2013-02-04 17:02:00,77.0,55.0,30.05,SSE,165,0.0,2.0,47,0.00,,,0.00,,2013-02-04 22:02:00,
2013-02-04 17:12:00,77.0,55.0,30.05,SSE,165,0.0,2.0,47,0.00,,,0.00,,2013-02-04 22:12:00,
2013-02-04 17:21:00,75.0,56.0,30.06,SSW,208,0.0,6.0,52,0.00,,,0.00,,2013-02-04 22:21:00,
2013-02-04 17:32:00,73.0,56.0,30.06,South,174,0.0,5.0,55,0.00,,,0.00,,2013-02-04 22:32:00,
2013-02-04 17:42:00,73.0,56.0,30.06,South,174,0.0,5.0,55,0.00,,,0.00,,2013-02-04 22:42:00,
2013-02-04 17:52:00,73.0,56.0,30.06,ESE,105,0.0,3.0,56,0.00,,,0.00,,2013-02-04 22:52:00,
2013-02-04 18:01:00,73.0,56.0,30.06,SSW,204,1.0,4.0,55,0.00,,,0.00,,2013-02-04 23:01:00,
2013-02-04 18:11:00,73.0,56.0,30.06,SSW,204,1.0,4.0,55,0.00,,,0.00,,2013-02-04 23:11:00,
2013-02-04 18:21:00,72.0,55.0,30.06,SE,132,1.0,4.0,56,0.00,,,0.00,,2013-02-04 23:21:00,
2013-02-04 18:32:00,70.0,55.0,30.06,SE,127,0.0,2.0,58,0.00,,,0.00,,2013-02-04 23:32:00,
2013-02-04 18:42:00,70.0,55.0,30.06,SE,127,0.0,2.0,58,0.00,,,0.00,,2013-02-04 23:42:00,
2013-02-04 18:52:00,70.0,55.0,30.07,East,98,0.0,3.0,59,0.00,,,0.00,,2013-02-04 23:52:00,
2013-02-04 19:02:00,69.0,55.0,30.07,ESE,103,0.0,2.0,60,0.00,,,0.00,,2013-02-05 00:02:00,
2013-02-04 19:11:00,69.0,55.0,30.07,ESE,103,0.0,2.0,60,0.00,,,0.00,,2013-02-05 00:11:00,
2013-02-04 19:22:00,68.0,54.0,30.07,SSE,152,0.0,2.0,61,0.00,,,0.00,,2013-02-05 00:22:00,
2013-02-04 19:32:00,68.0,55.0,30.07,SE,132,0.0,1.0,63,0.00,,,0.00,,2013-02-05 00:32:00,
2013-02-04 19:42:00,68.0,55.0,30.07,SE,132,0.0,1.0,63,0.00,,,0.00,,2013-02-05 00:42:00,
2013-02-04 19:52:00,67.0,54.0,30.08,SE,133,0.0,1.0,64,0.00,,,0.00,,2013-02-05 00:52:00,
2013-02-04 20:02:00,66.0,54.0,30.08,SE,132,0.0,0.0,66,0.00,,,0.00,,2013-02-05 01:02:00,
2013-02-04 20:11:00,66.0,54.0,30.08,SE,132,0.0,0.0,66,0.00,,,0.00,,2013-02-05 01:11:00,
2013-02-04 20:22:00,65.0,54.0,30.08,SE,132,0.0,0.0,68,0.00,,,0.00,,2013-02-05 01:22:00,
2013-02-04 20:32:00,64.0,54.0,30.09,SE,132,0.0,0.0,71,0.00,,,0.00,,2013-02-05 01:32:00,
2013-02-04 20:42:00,64.0,54.0,30.09,SE,132,0.0,0.0,71,0.00,,,0.00,,2013-02-05 01:42:00,
2013-02-04 20:52:00,64.0,54.0,30.09,SE,133,0.0,0.0,71,0.00,,,0.00,,2013-02-05 01:52:00,
2013-02-04 21:01:00,64.0,55.0,30.09,SE,132,0.0,0.0,72,0.00,,,0.00,,2013-02-05 02:01:00,
2013-02-04 21:11:00,64.0,55.0,30.09,SE,132,0.0,0.0,72,0.00,,,0.00,,2013-02-05 02:11:00,
2013-02-04 21:22:00,63.0,55.0,30.09,SE,132,0.0,0.0,74,0.00,,,0.00,,2013-02-05 02:22:00,
2013-02-04 21:32:00,62.0,54.0,30.09,SE,133,0.0,0.0,75,0.00,,,0.00,,2013-02-05 02:32:00,
2013-02-04 21:42:00,62.0,54.0,30.09,SE,133,0.0,0.0,75,0.00,,,0.00,,2013-02-05 02:42:00,
2013-02-04 21:52:00,62.0,54.0,30.09,SE,132,0.0,0.0,76,0.00,,,0.00,,2013-02-05 02:52:00,
2013-02-04 22:02:00,61.0,54.0,30.09,SE,133,0.0,0.0,77,0.00,,,0.00,,2013-02-05 03:02:00,
2013-02-04 22:11:00,61.0,54.0,30.09,SE,133,0.0,0.0,77,0.00,,,0.00,,2013-02-05 03:11:00,
2013-02-04 22:21:00,61.0,54.0,30.09,SE,132,0.0,0.0,79,0.00,,,0.00,,2013-02-05 03:21:00,
2013-02-04 22:32:00,60.0,54.0,30.09,SE,132,0.0,0.0,81,0.00,,,0.00,,2013-02-05 03:32:00,
2013-02-04 22:42:00,60.0,54.0,30.09,SE,132,0.0,0.0,81,0.00,,,0.00,,2013-02-05 03:42:00,
2013-02-04 22:52:00,60.0,54.0,30.09,SE,132,0.0,0.0,81,0.00,,,0.00,,2013-02-05 03:52:00,
2013-02-04 23:01:00,60.0,54.0,30.09,SE,133,0.0,0.0,81,0.00,,,0.00,,2013-02-05 04:01:00,
2013-02-04 23:11:00,60.0,54.0,30.09,SE,133,0.0,0.0,81,0.00,,,0.00,,2013-02-05 04:11:00,
2013-02-04 23:22:00,60.0,54.0,30.09,SE,133,0.0,0.0,81,0.00,,,0.00,,2013-02-05 04:22:00,
2013-02-04 23:32:00,59.0,54.0,30.10,SE,132,0.0,0.0,85,0.00,,,0.00,,2013-02-05 04:32:00,
2013-02-04 23:42:00,59.0,54.0,30.10,SE,132,0.0,0.0,85,0.00,,,0.00,,2013-02-05 04:42:00,
2013-02-04 23:52:00,59.0,54.0,30.09,SE,132,0.0,0.0,85,0.00,,,0.00,,2013-02-05 04:52:00,